[[{"header":{"parameterUnit":"m.s-1","parameterCategory":1,"la1":30.2991,"la2":30.254,"lo1":-89.0895,"lo2":-89.0444,"dy":0.0017,"dx":0.0017,"nx":28,"ny":28,"refTime":"2025-09-05T03:00:00:Z","depth":0,"parameterNumber":2,"parameterNumberName":"U-component_of_WINDS"},"data":[0,0,0,0,0,0,0,0,0,0,0,0,0,0,0,0,0,0,0,0,0,0,0,0,0,0,0,0,0,0,0,0,0,0,0,0,0,0,0,0,0,0,0,0,0,0,0,0,0,0,0,0,0,0,0,0,0,0,-0.5649,-0.5649,0,-0.5626,-0.5625,-0.5625,-0.5581,-0.5581,-0.558,-0.5579,-0.5556,-0.5556,-0.5556,0,0,0,0,0,0,0,0,0,0,0,0,0,-0.5657,-0.5657,-0.5649,-0.5649,-0.5648,-0.5626,-0.5625,-0.5625,-0.5582,-0.5581,-0.558,-0.5579,-0.5556,-0.5556,-0.5556,0,0,0,0,0,0,0,0,0,0,0,0,0,-0.5645,-0.5657,-0.5649,-0.5624,-0.5621,-0.5626,-0.5625,-0.5625,-0.5582,-0.5581,-0.5579,-0.5578,-0.5556,-0.5556,-0.5556,-0.5584,0,0,-0.5557,-0.5557,0,0,0,0,0,0,0,0,-0.5646,-0.5645,-0.5628,-0.5626,-0.5623,-0.5605,-0.562,-0.5611,-0.5582,-0.5597,-0.5579,-0.5577,-0.5573,-0.5572,-0.5571,-0.5583,-0.5582,-0.5557,-0.5557,-0.5558,-0.5558,0,0,0,0,0,0,0,-0.5647,-0.5646,-0.564,-0.5628,-0.5625,-0.5614,-0.5611,-0.5618,-0.5593,-0.5595,-0.5592,-0.559,-0.5572,-0.5571,-0.557,-0.5581,-0.5557,-0.5558,-0.5558,-0.5558,-0.5615,-0.5617,0,0,0,0,0,0,-0.5651,-0.5647,-0.564,-0.5639,-0.5632,-0.5615,-0.5612,-0.5612,-0.5592,-0.5588,-0.5591,-0.5588,-0.5571,-0.557,-0.5569,-0.56,-0.5558,-0.5558,-0.5558,-0.5614,-0.5616,-0.5617,0,0,0,0,0,0,-0.5652,-0.5651,-0.5641,-0.5642,-0.564,-0.5616,-0.5617,-0.5612,-0.5611,-0.5589,-0.5585,-0.5594,-0.557,-0.5568,-0.558,-0.5599,-0.5558,-0.5558,-0.5612,-0.5615,-0.5616,-0.5663,0,0,0,0,0,0,-0.5652,-0.5651,-0.5661,-0.5643,-0.564,-0.5653,-0.5618,-0.5613,-0.5611,-0.5607,-0.5591,-0.5587,-0.5569,-0.558,-0.5581,-0.5598,-0.5558,-0.5611,-0.5613,-0.5616,-0.566,-0.5666,-0.5672,0,0,0,0,0,-0.5652,-0.5675,-0.5662,-0.5661,-0.5652,-0.5654,-0.5653,-0.5631,-0.5613,-0.5623,-0.5609,-0.5588,-0.5597,-0.5582,-0.5582,-0.56,-0.5609,-0.5613,-0.5616,-0.5657,-0.5665,-0.5672,0,0,0,0,0,0,-0.5697,-0.5672,-0.5657,-0.5675,-0.5667,-0.5647,-0.5659,-0.564,-0.5637,-0.5634,-0.5607,-0.5603,-0.5619,-0.5611,-0.5595,-0.5626,-0.56,-0.5603,-0.5631,-0.5639,-0.5645,-0.5647,-0.5559,0,0,0,0,0,-0.5709,-0.5712,-0.5691,-0.5708,-0.5705,-0.5683,-0.5683,-0.5667,-0.5658,-0.5654,-0.5641,-0.5633,-0.5635,-0.5636,-0.5636,-0.5658,-0.5654,-0.567,-0.5677,-0.5682,-0.5685,-0.5698,-0.5705,-0.5627,-0.5627,-0.5627,0,0,-0.5733,-0.572,-0.5724,-0.5717,-0.5709,-0.5714,-0.568,-0.5687,-0.569,-0.5655,-0.5666,-0.5656,-0.5646,-0.5664,-0.5671,-0.5657,-0.5706,-0.5686,-0.569,-0.5691,-0.5701,-0.5709,-0.5715,-0.5629,-0.5629,-0.5629,0,0,-0.578,-0.577,-0.5784,-0.5777,-0.5765,-0.575,-0.5754,-0.5737,-0.5729,-0.5739,-0.5713,-0.5718,-0.572,-0.5714,-0.5711,-0.5757,-0.5737,-0.5758,-0.579,-0.5802,-0.5809,-0.5814,-0.5831,-0.5838,-0.5761,-0.5761,-0.5761,0,-0.5812,-0.5818,-0.5794,-0.5802,-0.58,-0.5768,-0.5783,-0.5777,-0.5766,-0.5766,-0.575,-0.5753,-0.5744,-0.576,-0.5772,-0.577,-0.5774,-0.576,-0.581,-0.5815,-0.5819,-0.5836,-0.5842,-0.5764,-0.5763,-0.5763,-0.5763,0,-0.5859,-0.5864,-0.5876,-0.5867,-0.5866,-0.5877,-0.5855,-0.5857,-0.5841,-0.5828,-0.584,-0.5827,-0.5825,-0.5827,-0.5811,-0.5842,-0.5834,-0.5814,-0.5788,-0.583,-0.5845,-0.5851,-0.5767,-0.5766,-0.5766,-0.5765,0,0,-0.5934,-0.591,-0.5916,-0.5911,-0.5896,-0.59,-0.591,-0.5907,-0.591,-0.5904,-0.5912,-0.5915,-0.5898,-0.5895,-0.5878,-0.5889,-0.5927,-0.5868,-0.5867,-0.588,-0.5961,-0.5976,-0.5984,-0.5914,-0.5915,-0.5916,-0.5962,0,-0.5978,-0.5994,-0.5973,-0.5994,-0.5999,-0.5969,-0.5978,-0.597,-0.5958,-0.5961,-0.5947,-0.5951,-0.5926,-0.5925,-0.5934,-0.5921,-0.5943,-0.5917,-0.5922,-0.5923,-0.5927,-0.5992,-0.6008,-0.6052,-0.5968,-0.5969,-0.5969,0,-0.6033,-0.6029,-0.6051,-0.6035,-0.6037,-0.6045,-0.6041,-0.6044,-0.6035,-0.6025,-0.6022,-0.6002,-0.6012,-0.5986,-0.5999,-0.5982,-0.5983,-0.5977,-0.5978,-0.5978,-0.595,-0.5995,-0.6066,-0.6073,-0.5978,-0.5977,-0.5977,0,-0.6087,-0.6087,-0.6101,-0.6098,-0.6079,-0.6086,-0.6079,-0.6069,-0.6069,-0.6065,-0.6065,-0.6063,-0.6062,-0.6062,-0.6042,-0.6024,-0.6058,-0.603,-0.6052,-0.6052,-0.6061,-0.6061,-0.6134,-0.606,-0.606,-0.606,-0.606,0,-0.614,-0.6155,-0.6125,-0.6133,-0.6149,-0.6124,-0.614,-0.613,-0.6121,-0.6128,-0.6101,-0.6108,-0.6081,-0.6085,-0.607,-0.6084,-0.6083,-0.6077,-0.6073,-0.608,-0.6081,-0.6081,-0.6078,-0.6062,-0.6061,-0.6061,-0.6061,0,-0.6203,-0.6184,-0.6196,-0.6178,-0.6174,-0.6187,-0.6171,-0.6179,-0.6165,-0.6173,-0.6174,-0.6153,-0.6156,-0.6136,-0.6136,-0.6126,-0.6148,-0.6138,-0.6151,-0.6148,-0.6172,-0.6171,-0.6249,-0.6258,-0.6177,-0.6178,-0.6178,0,-0.6239,-0.625,-0.6233,-0.6235,-0.6229,-0.6233,-0.6233,-0.6209,-0.621,-0.6201,-0.6209,-0.621,-0.621,-0.6217,-0.6202,-0.6202,-0.6192,-0.622,-0.6192,-0.6199,-0.6194,-0.6194,-0.6196,-0.6226,-0.6227,-0.6228,-0.6228,0,-0.6305,-0.6295,-0.6295,-0.6293,-0.6294,-0.6291,-0.6286,-0.6289,-0.6263,-0.6266,-0.6269,-0.6269,-0.6269,-0.6271,-0.6267,-0.626,-0.6241,-0.6237,-0.6242,-0.625,-0.6258,-0.6255,-0.6168,-0.6236,-0.6235,-0.6234,-0.6234,-0.6234,-0.6356,-0.6365,-0.6354,-0.6356,-0.635,-0.6346,-0.6353,-0.634,-0.6342,-0.634,-0.6325,-0.6331,-0.6323,-0.6316,-0.6312,-0.6316,-0.6303,-0.6311,-0.6313,-0.6315,-0.632,-0.6256,-0.6315,-0.6315,-0.6315,-0.6315,-0.6315,0,-0.6422,-0.6414,-0.6416,-0.641,-0.6412,-0.6392,-0.6386,-0.6389,-0.6395,-0.6388,-0.6388,-0.6392,-0.6394,-0.6379,-0.6379,-0.6386,-0.6377,-0.6387,-0.6387,-0.6386,-0.6331,-0.6327,-0.6394,-0.6394,-0.6394,-0.6394,-0.6394,-0.6394,-0.6456,-0.647,-0.6459,-0.6469,-0.6461,-0.6466,-0.6465,-0.6462,-0.6456,-0.6462,-0.6463,-0.6453,-0.6444,-0.6443,-0.6444,-0.6439,-0.6441,-0.6455,-0.6448,-0.6397,-0.6389,-0.6382,-0.6378,-0.6455,-0.6455,-0.6502,-0.6502,-0.6503]},{"header":{"parameterUnit":"m.s-1","parameterCategory":1,"la1":30.2991,"la2":30.254,"lo1":-89.0895,"lo2":-89.0444,"dy":0.0017,"dx":0.0017,"nx":28,"ny":28,"refTime":"2025-09-05T03:00:00:Z","depth":0,"parameterNumber":3,"parameterNumberName":"V-component_of_WINDS"},"data":[0,0,0,0,0,0,0,0,0,0,0,0,0,0,0,0,0,0,0,0,0,0,0,0,0,0,0,0,0,0,0,0,0,0,0,0,0,0,0,0,0,0,0,0,0,0,0,0,0,0,0,0,0,0,0,0,0,0,2.786,2.7859,0,2.7816,2.7815,2.7815,2.7745,2.7744,2.7742,2.7741,2.7696,2.7696,2.7696,0,0,0,0,0,0,0,0,0,0,0,0,0,2.7882,2.7882,2.786,2.7859,2.7859,2.7816,2.7815,2.7815,2.7745,2.7744,2.7742,2.7741,2.7696,2.7696,2.7696,0,0,0,0,0,0,0,0,0,0,0,0,0,2.7859,2.7882,2.786,2.7819,2.7815,2.7816,2.7815,2.7814,2.7746,2.7744,2.7742,2.774,2.7696,2.7696,2.7696,2.7734,0,0,2.7696,2.7696,0,0,0,0,0,0,0,0,2.786,2.7858,2.7825,2.7822,2.7817,2.7784,2.7807,2.7787,2.7746,2.7772,2.7741,2.7739,2.7727,2.7724,2.772,2.7732,2.773,2.7696,2.7696,2.7696,2.7696,0,0,0,0,0,0,0,2.7862,2.786,2.7842,2.7825,2.782,2.7802,2.7797,2.7803,2.7761,2.7769,2.7764,2.776,2.7724,2.772,2.7719,2.7729,2.7696,2.7696,2.7696,2.7696,2.7767,2.7768,0,0,0,0,0,0,2.787,2.7861,2.7844,2.7841,2.7834,2.7803,2.7797,2.7796,2.776,2.7753,2.7762,2.7757,2.7721,2.7719,2.7717,2.7756,2.7696,2.7696,2.7696,2.7765,2.7767,2.7769,0,0,0,0,0,0,2.787,2.7869,2.7845,2.785,2.7845,2.7805,2.7805,2.7797,2.7792,2.7754,2.7747,2.7765,2.772,2.7717,2.773,2.7754,2.7696,2.7696,2.7763,2.7765,2.7768,2.7837,0,0,0,0,0,0,2.7871,2.7869,2.7884,2.7851,2.7845,2.7859,2.7806,2.7797,2.7793,2.7786,2.7756,2.7749,2.7718,2.773,2.773,2.7753,2.7696,2.776,2.7764,2.7767,2.7832,2.7842,2.785,0,0,0,0,0,2.7872,2.7905,2.7885,2.7883,2.7862,2.7861,2.7858,2.7822,2.7795,2.7808,2.7784,2.775,2.7752,2.7732,2.7731,2.7754,2.7758,2.7763,2.7767,2.7828,2.784,2.785,0,0,0,0,0,0,2.7943,2.79,2.7877,2.79,2.7885,2.7849,2.7865,2.7836,2.7827,2.7821,2.7777,2.7771,2.7788,2.7773,2.7752,2.7787,2.775,2.7754,2.7797,2.7807,2.7816,2.7818,2.7696,0,0,0,0,0,2.7961,2.7964,2.7926,2.7951,2.7944,2.7906,2.7904,2.7878,2.786,2.7853,2.7829,2.7813,2.7809,2.7808,2.7803,2.783,2.7821,2.7846,2.7854,2.7862,2.7865,2.7876,2.7886,2.7783,2.7783,2.7783,0,0,2.7999,2.7976,2.798,2.7964,2.7949,2.7952,2.7901,2.7907,2.7908,2.7854,2.7863,2.7846,2.7824,2.7844,2.7851,2.7831,2.7892,2.7867,2.7874,2.7873,2.7881,2.7891,2.79,2.7786,2.7785,2.7785,0,0,2.8068,2.8052,2.8069,2.8055,2.8032,2.8006,2.8011,2.798,2.7965,2.7975,2.7933,2.7934,2.793,2.7915,2.7907,2.797,2.7938,2.797,2.8015,2.8026,2.8034,2.8041,2.8061,2.8069,2.7974,2.7974,2.7975,0,2.8117,2.812,2.8082,2.8089,2.8082,2.8033,2.8049,2.8037,2.8014,2.801,2.7989,2.798,2.7963,2.7977,2.7992,2.7989,2.7991,2.7972,2.8036,2.8043,2.8049,2.8067,2.8075,2.7978,2.7978,2.7977,2.7977,0,2.8181,2.8183,2.82,2.8178,2.8173,2.8186,2.8148,2.8148,2.8122,2.8098,2.8107,2.8085,2.8073,2.8075,2.805,2.8085,2.8073,2.8045,2.8005,2.8063,2.8079,2.8086,2.7984,2.7982,2.7981,2.798,0,0,2.8292,2.8248,2.8255,2.8243,2.8215,2.8216,2.8225,2.8213,2.8213,2.8199,2.8204,2.8201,2.8174,2.8165,2.8138,2.8148,2.8196,2.8118,2.8117,2.8131,2.823,2.825,2.8259,2.8175,2.8177,2.8178,2.8231,0,2.8354,2.8367,2.8332,2.8353,2.8354,2.8307,2.8315,2.8298,2.8276,2.8273,2.8249,2.8246,2.8212,2.8206,2.8214,2.8189,2.8215,2.8185,2.8178,2.8178,2.8182,2.8268,2.8289,2.834,2.8237,2.8239,2.8239,0,2.8427,2.8416,2.8437,2.8405,2.8404,2.8412,2.8397,2.8396,2.8375,2.8358,2.8348,2.8316,2.8321,2.8285,2.8291,2.8271,2.8266,2.8253,2.8254,2.825,2.8211,2.8264,2.8356,2.8363,2.825,2.8249,2.8248,0,2.8503,2.8493,2.8504,2.8496,2.846,2.8466,2.8452,2.8429,2.8423,2.8411,2.8406,2.8395,2.8388,2.8379,2.8344,2.8322,2.8353,2.8315,2.8338,2.8338,2.8345,2.8344,2.8435,2.8346,2.8346,2.8346,2.8346,0,2.8574,2.8588,2.8537,2.8544,2.8558,2.8518,2.8533,2.8513,2.8493,2.8494,2.8454,2.8455,2.841,2.8407,2.838,2.8387,2.8385,2.837,2.8362,2.8373,2.8374,2.8367,2.8362,2.8348,2.8347,2.8347,2.8347,0,2.866,2.8627,2.8635,2.86,2.8592,2.8604,2.8573,2.8577,2.8553,2.8554,2.8553,2.8514,2.8508,2.8472,2.8458,2.844,2.8455,2.8442,2.8462,2.8457,2.8481,2.8478,2.8569,2.8577,2.8485,2.8486,2.8487,0,2.8706,2.8716,2.8682,2.8679,2.8666,2.8664,2.8657,2.8618,2.8613,2.8589,2.8596,2.8586,2.8575,2.8567,2.8537,2.8525,2.8509,2.8542,2.8507,2.8516,2.8506,2.8505,2.8505,2.8549,2.855,2.8551,2.8552,0,2.8791,2.8774,2.8767,2.8754,2.8747,2.8735,2.8721,2.8721,2.8677,2.8674,2.8666,2.8658,2.8643,2.8633,2.8616,2.8599,2.8567,2.8563,2.8567,2.8576,2.8587,2.8578,2.848,2.8561,2.856,2.8559,2.8559,2.8558,2.8856,2.8862,2.8838,2.8831,2.8816,2.8803,2.8804,2.878,2.8773,2.8757,2.8735,2.873,2.8707,2.868,2.8666,2.8661,2.8643,2.865,2.8651,2.8653,2.8657,2.859,2.8658,2.8658,2.8657,2.8657,2.8657,0,2.8937,2.8919,2.8913,2.8893,2.8887,2.8859,2.8841,2.8838,2.8834,2.8815,2.8806,2.8796,2.8786,2.8755,2.8741,2.8742,2.8727,2.874,2.8738,2.8734,2.8675,2.8671,2.8752,2.8752,2.8752,2.8752,2.8752,2.8752,2.8977,2.8985,2.8965,2.8963,2.8945,2.894,2.8932,2.8919,2.8903,2.8895,2.8886,2.8866,2.8842,2.8825,2.8814,2.8805,2.8801,2.8818,2.8804,2.8748,2.8739,2.873,2.8726,2.8818,2.8818,2.8863,2.8863,2.8864]}]]